Location: Newark
(25.4800°N, 85.7200°E)
Time: 08:41:55
(UTC+00:00)

Vanguard 1 Rocket - Pass Details

Date: 19 August 2019
Orbit: 651 x 4225 km, 34.3° (Epoch: 20 September)

Event Time Altitude Azimuth Distance (km) Brightness Sun altitude
Rises 06:43:43 0° 267° (W) 6,562 11.9 76.3°
Reaches altitude 10° 06:50:26 10° 249° (WSW) 6,193 11.9 75.6°
Maximum altitude 07:01:29 17° 217° (SW) 6,380 12.2 74.2°
Drops below altitude 10° 07:14:46 10° 184° (S) 7,402 12.4 72.1°
Sets 07:24:56 0° 167° (SSE) 8,388 12.4 70.3°
